Springfield, CO

5:39 PM MST on February 19, 2018 (GMT -0700)
Springfield

Weather History for KSPD - November, 2013

Change the Weather History Date:

Friday, November 22, 2013

  Actual Average Record
Temperature  
Mean Temperature 21 °F -  
Max Temperature 26 °F 54 °F 82 °F (1998)
Min Temperature 16 °F 24 °F 12 °F (2007)
Degree Days  
Heating Degree Days 44 26  
Month to date heating degree days 433 476  
Since 1 July heating degree days 854 921  
Cooling Degree Days 0 0  
Month to date cooling degree days 0 0  
Year to date cooling degree days 1358 1028  
Moisture  
Dew Point 17 °F    
Average Humidity 80    
Maximum Humidity 92    
Minimum Humidity 67    
Precipitation  
Precipitation 0.64 in 0.02 in 0.64 in (2013)
Month to date precipitation 0.65 0.46  
Year to date precipitation 14.15  
Sea Level Pressure  
Sea Level Pressure 30.64 in    
Wind  
Wind Speed 12 mph (NNW)    
Max Wind Speed 26 mph    
Max Gust Speed 35 mph    
T = Trace of Precipitation, MM = Missing Value Source: NWS Daily Summary

Daily Weather History Graph

Daily Weather History Graph

Search for Another Location

Airport or City:

Trip Planner

Search our weather history database for the weather conditions in past years. The results will help you decide how hot, cold, wet, or windy it might be!

Date:

Astronomy

Nov. 22, 2013 Rise Set
Actual Time 6:37 AM MST 4:35 PM MST
Civil Twilight 6:08 AM MST 5:04 PM MST
Nautical Twilight 5:37 AM MST 5:35 PM MST
Astronomical Twilight 5:05 AM MST 6:07 PM MST
Moon 9:08 PM MST (11/22) 10:23 AM MST (11/22)
Length of Visible Light 10h 55m
Length of Day
9h 58m
Waning Gibbous, 77% of the Moon is Illuminated
Nov 22
Waning Gibbous
Nov 25
Last Quarter
Dec 2
New
Dec 9
First Quarter
Dec 17
Full

Hourly Weather History & Observations

Time (MST) Temp. Windchill Dew Point Humidity Pressure Visibility Wind Dir Wind Speed Gust Speed Precip Events Conditions
12:56 AM 17.1 °F -1.4 °F 9.0 °F 71% 30.63 in - NNW 25.3 mph 32.2 mph N/A   Unknown
1:56 AM 16.0 °F -2.1 °F 10.9 °F 81% 30.62 in - North 23.0 mph 29.9 mph 0.01 in   Unknown
2:56 AM 16.0 °F 0.1 °F 12.0 °F 84% 30.65 in - NNW 17.3 mph 25.3 mph 0.04 in   Unknown
3:56 AM 16.0 °F 1.7 °F 12.9 °F 88% 30.65 in - NNW 13.8 mph - 0.11 in   Unknown
4:56 AM 16.0 °F 0.1 °F 12.9 °F 88% 30.65 in - NNW 17.3 mph - 0.13 in   Unknown
5:56 AM 16.0 °F 1.7 °F 12.9 °F 88% 30.67 in - NNW 13.8 mph - 0.09 in   Unknown
6:56 AM 17.1 °F 2.5 °F 14.0 °F 88% 30.69 in - NW 15.0 mph - 0.10 in   Unknown
7:56 AM 17.1 °F 3.0 °F 14.0 °F 88% 30.70 in - NNW 13.8 mph - 0.04 in   Unknown
8:56 AM 19.0 °F 5.6 °F 14.0 °F 81% 30.69 in - NNW 13.8 mph - 0.03 in   Unknown
9:56 AM 19.9 °F 9.3 °F 15.1 °F 81% 30.70 in - NNW 9.2 mph - 0.01 in   Unknown
10:56 AM 21.9 °F 11.0 °F 17.1 °F 82% 30.68 in - NNW 10.4 mph - N/A   Unknown
11:56 AM 24.1 °F 12.0 °F 18.0 °F 77% 30.64 in - NNW 13.8 mph - 0.01 in   Unknown
12:56 PM 25.0 °F 13.1 °F 19.0 °F 78% 30.63 in - North 13.8 mph - N/A   Unknown
1:56 PM 24.1 °F 12.0 °F 19.0 °F 81% 30.62 in - North 13.8 mph - N/A   Unknown
2:56 PM 23.0 °F 11.7 °F 18.0 °F 81% 30.63 in - North 11.5 mph - N/A   Unknown
3:56 PM 21.9 °F 13.4 °F 19.0 °F 89% 30.62 in - North 6.9 mph - 0.01 in   Unknown
4:56 PM 21.9 °F 12.5 °F 19.0 °F 89% 30.63 in - NNW 8.1 mph - N/A   Unknown
5:56 PM 23.0 °F 17.0 °F 19.9 °F 88% 30.62 in - NW 4.6 mph - N/A   Unknown
6:56 PM 23.0 °F 13.9 °F 19.9 °F 88% 30.61 in - NNW 8.1 mph - N/A   Unknown
7:56 PM 24.1 °F 17.0 °F 21.0 °F 88% 30.62 in - NNW 5.8 mph - N/A   Unknown
8:56 PM 25.0 °F 14.8 °F 21.9 °F 88% 30.62 in - NNW 10.4 mph - 0.02 in   Unknown
9:56 PM 25.0 °F 15.5 °F 23.0 °F 92% 30.62 in - NNW 9.2 mph - N/A   Unknown
10:56 PM 26.1 °F 15.6 °F 23.0 °F 88% 30.63 in - NNW 11.5 mph - 0.02 in   Unknown
11:56 PM 25.0 °F 16.3 °F 23.0 °F 92% 30.63 in - North 8.1 mph - 0.02 in   Unknown